Location: L�chelles
(46.8295°N, 7.0175°E)
Time: 02:28:15
(UTC+00:00)

Daily predictions for brighter satellites

Satellite Brightness Start Highest point End
(mag) Time Altitude Azimuth Time Altitude Azimuth Time Altitude Azimuth
CENTAUR R/B 4.4 02:14:21 35° E 02:14:21 35° E 02:19:30 10° ESE
Cosmos 2263 Rocket 4.1 03:01:26 26° ENE 03:01:26 26° ENE 03:04:19 10° NE
SJ 16-02 4.3 03:08:47 14° ENE 03:08:47 14° ENE 03:09:58 10° NE
CZ-4C R/B 4.3 03:25:49 15° SE 03:28:06 20° ESE 03:31:59 10° ENE
BREEZE-M DEB (TANK) 4.5 03:30:33 79° NNE 03:30:33 79° NNE 03:35:01 10° E
ATLAS 3B R/B 3.6 03:30:35 38° N 03:31:57 42° NE 03:38:39 10° ESE
Cosmos 1943 4.3 03:36:00 38° SE 03:36:00 38° SE 03:39:26 10° SSE
Lacrosse 4 Rocket 3.8 03:38:11 21° ESE 03:38:11 21° ESE 03:39:47 10° SE
Cosmos 2227 Rocket 4.5 03:57:13 12° N 03:57:13 12° N 03:57:41 10° N
ALOS 3.3 03:49:45 10° NNE 03:53:16 43° ENE 03:53:16 43° ENE
NOSS 3-2 (C) 4.0 04:00:07 60° WSW 04:00:13 60° WSW 04:08:34 10° SSE
NOSS 3-4 (A) 3.4 04:00:50 70° S 04:01:28 79° SE 04:07:47 10° NE
NOSS 3-4 (C) 3.4 04:00:54 68° S 04:01:36 78° SE 04:07:55 10° NE
CENTAUR R/B 3.1 04:01:35 59° WSW 04:02:12 60° WSW 04:10:50 10° SSE
ARGOS Delta rocket 4.2 04:00:16 10° NNE 04:04:43 63° NE 04:04:43 63° NE
Cosmos 158 Rocket 3.9 04:10:38 71° NE 04:10:48 71° ENE 04:15:45 10° SSE
SL-4 R/B 3.5 04:15:02 29° NE 04:15:02 29° NE 04:17:08 10° ENE
Cosmos 1151 Rocket 3.9 04:17:01 41° SSE 04:17:01 41° SSE 04:19:51 10° SSE
Cosmos 1782 3.7 04:16:34 46° NE 04:16:59 49° ENE 04:20:54 10° SSE
SKYMED 2 4.4 04:13:23 10° SE 04:17:33 49° ENE 04:19:24 29° NNE
Cosmos 1844 Rocket 4.3 04:12:36 10° SSE 04:17:36 34° ESE 04:22:39 10° NE
ATLAS 2AS CENTAUR R/B 3.0 04:15:30 22° SSW 04:21:06 84° SE 04:28:59 10° NE
ERS-2 4.3 04:18:15 10° SSE 04:19:17 18° SSE 04:19:17 18° SSE
Cosmos 1680 Rocket 3.7 04:20:02 38° N 04:22:03 71° ENE 04:27:20 10° SSE
ATLAS 5 CENTAUR R/B 3.7 04:31:19 19° NNE 04:31:19 19° NNE 04:32:13 10° NNE
Atlas Centaur 2 4.4 04:26:41 13° SSW 04:29:21 16° S 04:32:44 10° SE
RESURS DK-1 3.5 04:27:45 10° S 04:31:41 43° ESE 04:35:38 10° NE
ATLAS CENTAUR R/B 1.9 04:32:06 44° NNE 04:32:27 46° NE 04:36:13 10° ESE
CRYOSAT 2 4.4 04:27:43 10° SSE 04:32:34 78° E 04:37:27 10° N
Lacrosse 5 1.8 04:32:02 56° SW 04:33:07 87° SE 04:38:13 10° NE
ADEOS 3.4 04:28:57 10° NNE 04:34:12 79° WNW 04:39:25 10° SSW
Cosmos 1328 Rocket 3.4 04:35:39 75° WSW 04:35:39 75° WSW 04:40:00 10° S
Cosmos 2112 Rocket 4.0 04:38:53 28° NNW 04:41:50 87° ENE 04:47:11 10° SSE
Cosmos 2263 Rocket 2.6 04:43:11 41° NW 04:43:11 41° NW 04:48:25 10° NNE
Gbstr 26 Del rocket 2.5 04:43:34 77° SSW 04:43:34 77° SSW 04:47:23 10° ESE
SJ 16-02 1.6 04:45:52 50° NW 04:45:52 50° NW 04:49:40 10° NNE
Cosmos 1898 Rocket 3.6 04:47:29 10° SSW 04:52:47 79° ESE 04:58:09 10° NNE
Meteor 1-26 Rocket 4.3 04:48:59 18° NNW 04:53:11 56° W 04:58:38 10° S
FALCON 9 DEB 2.8 04:56:35 87° SSW 04:56:37 88° SSE 04:59:50 10° ENE
FALCON 9 DEB 2.8 04:56:45 88° N 04:56:45 88° N 04:59:58 10° ENE
FENGYUN 3A 3.9 04:53:52 10° N 04:58:59 45° WNW 05:04:05 10° SW
Cosmos 1743 Rocket 3.9 04:55:51 10° S 05:00:16 68° E 05:04:44 10° NNE
Cosmos 1408 Rocket 3.5 04:57:51 10° SSW 05:02:16 62° W 05:06:42 10° N
Cosmos 2082 Rocket 4.5 04:59:54 10° N 05:03:36 17° NE 05:07:18 10° E
Cosmos 2181 Rocket 4.1 04:58:21 10° NNW 05:04:16 48° W 05:10:06 10° SSW
COSMO-SKYMED 1 2.6 05:01:20 10° S 05:05:35 54° W 05:08:00 24° NNW
USA 307 4.0 05:05:08 26° NNW 05:06:29 32° N 05:10:24 10° ENE
Cosmos 1709 Rocket 4.5 05:01:22 10° SW 05:07:11 37° WNW 05:13:04 10° N
Cosmos 1937 Rocket 3.5 05:04:43 10° SSW 05:09:52 80° ESE 05:15:05 10° NNE
USA 308 4.0 05:11:14 25° NNW 05:12:53 33° N 05:16:48 10° ENE
Lacrosse 4 Rocket 3.0 05:14:32 20° WSW 05:14:32 20° WSW 05:17:11 10° SSW
Cosmos 1833 Rocket 4.4 05:09:32 10° N 05:14:24 29° NE 05:19:15 10° ESE
Meteor 2-3 Rocket 4.1 05:09:04 10° SW 05:14:27 41° WNW 05:19:55 10° N
CZ-4C R/B 2.0 05:11:06 12° SW 05:15:44 70° NW 05:21:48 10° NE
MOS 1 Rocket 3.5 05:11:08 10° SSE 05:15:57 80° ENE 05:21:07 10° N
Cosmos 2154 Rocket 4.2 05:09:54 10° S 05:16:05 75° E 05:22:22 10° NNE
CZ-4B R/B 3.1 05:13:15 10° N 05:17:43 61° WNW 05:22:02 10° SSW
Cosmos 1689 Rocket 2.7 05:15:55 10° S 05:18:12 35° WSW 05:18:12 35° WSW
Meteor 1-27 Rocket 4.4 05:13:03 10° N 05:18:44 57° ENE 05:24:29 10° SSE
Cosmos 1805 Rocket 4.4 05:15:09 10° S 05:19:27 54° E 05:23:50 10° NNE
FALCON 9 DEB 2.9 05:18:33 40° W 05:19:29 64° NNW 05:22:42 10° ENE
Meteor 1-10 Rocket 4.2 05:15:12 10° NNW 05:20:47 89° W 05:26:25 10° S
SAR-Lupe-4 4.4 05:19:20 10° SSW 05:22:29 29° W 05:22:38 29° W
ATLAS 3B R/B 2.9 05:17:51 19° NW 05:22:56 58° WSW 05:29:57 10° SSE
Aureole 2 Rocket 2.3 05:21:19 10° S 05:23:47 56° ESE 05:26:19 10° NNE
COSMOS 2406 4.4 05:19:15 10° NNW 05:24:40 40° NE 05:30:03 10° ESE
Cosmos 1862 3.2 05:22:58 10° SSW 05:27:01 73° W 05:31:05 10° N
YAOGAN 6 3.0 05:24:58 10° NNE 05:28:27 62° E 05:31:54 10° S
Genesis I 3.1 05:24:54 11° SW 05:28:27 59° NW 05:32:16 10° NNE
deb Chang Zheng 4 4.4 05:27:36 10° N 05:31:21 29° WNW 05:35:06 10° SW
ALOS 3.4 05:27:56 10° NNW 05:31:24 21° WNW 05:31:45 21° WNW
Cosmos 858 Rocket 4.4 05:29:01 10° SSW 05:34:12 67° WNW 05:39:27 10° NNE
Cosmos 2327 Rocket 4.4 05:29:25 10° SSW 05:35:31 78° W 05:41:38 10° N
Cosmos 990 Rocket 4.3 05:30:39 10° SW 05:35:37 43° WNW 05:40:39 10° N
Cosmos 2074 Rocket 4.1 05:30:58 10° SSW 05:37:00 52° WNW 05:43:04 10° N
PSLV R/B 3.6 05:33:24 10° N 05:37:18 79° WNW 05:41:04 10° SSW
ASTRO F (AKARI) 4.3 05:36:13 10° N 05:39:15 52° WNW 05:42:19 10° SSW
Meteor 1-31 Rocket 4.3 05:38:26 10° NNW 05:40:29 17° NW 05:40:29 17° NW
USA 305 3.8 05:38:55 17° NW 05:41:52 38° NNE 05:45:55 10° E
BREEZE M DEB (TANK) 3.3 05:34:43 10° SW 05:42:11 53° SSE 05:44:54 10° ENE
Cosmos 405 Rocket 2.7 05:39:16 10° SSW 05:42:52 52° WNW 05:46:34 10° N
SL-24 DEB 4.3 05:38:19 10° S 05:43:05 85° W 05:47:54 10° N
EO 1 Delta rocket 4.2 05:42:06 10° SSW 05:46:55 44° W 05:51:21 10° NNW
Cosmos 1812 3.1 05:43:33 10° NNW 05:47:10 40° W 05:50:47 10° SSW
Cosmos 1295 Rocket 4.4 05:42:23 10° SSW 05:48:28 79° W 05:54:36 10° N
Cosmos 2228 Rocket 3.4 05:45:30 10° NNW 05:49:42 44° W 05:53:52 10° SSW
USA 306 3.7 05:47:01 14° NW 05:50:21 40° NNE 05:54:26 10° E
Cosmos 1782 4.5 05:52:14 14° WNW 05:52:52 15° W 05:55:10 10° WSW
Cosmos 1633 Rocket 4.2 05:48:47 10° SSE 05:53:02 48° E 05:57:17 10° NNE
NOSS 3-4 (A) 4.3 05:48:19 13° W 05:53:02 31° NNW 05:58:44 10° NNE
NOSS 3-4 (C) 4.3 05:48:24 12° W 05:53:09 31° NNW 05:58:53 10° NNE
SL-4 R/B 2.4 05:50:37 15° WNW 05:53:32 42° N 05:57:01 10° E
Cosmos 2184 Rocket 4.4 05:48:42 10° SW 05:54:37 41° WNW 06:00:38 10° N
USA 234 3.6 05:51:35 10° NE 05:58:07 70° SE 06:04:38 10° SW
Cosmos 1356 3.6 05:55:08 10° S 05:58:31 73° E 06:01:56 10° NNE
FALCON 9 DEB 3.7 05:56:58 14° W 05:59:27 36° NNW 06:02:29 10° NE
Cosmos 1844 Rocket 3.0 05:55:59 10° SW 06:01:22 43° NW 06:06:47 10° NNE
FALCON 9 DEB 4.0 05:59:52 12° NW 06:02:51 40° NNE 06:06:09 10° E
Cosmos 1707 Rocket 3.5 06:02:27 10° NNW 06:06:49 76° W 06:11:06 10° S
EXPRESS MD2 4.2 06:03:36 11° WNW 06:07:27 83° SSW 06:15:48 10° ESE
MOS 1-B 4.3 06:02:43 10° NNE 06:08:32 71° WNW 06:14:18 10° SSW
COSMOS 2455 2.8 06:03:26 10° SW 06:09:28 77° NW 06:15:33 10° NNE
RESURS DK-1 3.5 06:06:32 10° WSW 06:09:54 23° NW 06:13:16 10° N
BREEZE-M (TANK) 4.0 06:04:22 10° SW 06:10:48 40° SSE 06:13:19 10° E
ATLAS CENTAUR R/B 2.8 06:08:18 10° WNW 06:11:03 19° WSW 06:13:55 10° SSW
BREEZE-M DEB 4.3 06:03:09 10° WNW 06:11:32 37° SW 06:14:32 10° SSE
NOAA 6 4.1 06:06:38 10° N 06:11:40 57° WNW 06:16:39 10° SSW
ATLAS 2AS CENTAUR R/B 3.6 06:05:43 10° W 06:12:56 36° NNW 06:20:00 10° NE
ERBS 4.4 06:11:40 10° NW 06:13:33 14° N 06:15:26 10° NE
H-2A R/B 3.8 06:11:00 10° NNW 06:14:12 24° WNW 06:17:22 10° WSW
Cosmos 1844 4.0 06:10:03 10° SW 06:15:17 42° NW 06:20:36 10° NNE
Lacrosse 5 2.7 06:12:00 10° W 06:16:36 33° NNW 06:21:12 10° NE
CZ-4B DEB 4.3 06:11:29 10° N 06:16:47 53° WNW 06:22:04 10° SW
Atlas Centaur 2 4.5 06:15:09 10° SW 06:17:13 12° SSW 06:19:08 10° S
Cosmos 1437 Rocket 3.5 06:13:59 10° NNW 06:17:18 30° W 06:20:36 10° SSW
Cosmos 372 Rocket 4.1 06:13:40 10° SW 06:18:38 53° WNW 06:23:39 10° NNE
Okean O Rocket 1.6 06:16:00 10° N 06:20:27 74° WNW 06:24:54 10° SSW
Geosat 4.1 06:16:38 10° SSE 06:21:40 90° NW 06:26:44 10° NNW
